Morris, IL

3:56 PM CDT on May 26, 2018 (GMT -0500)
Morris

Weather History for KC09 - March, 2013

Change the Weather History Date:

Tuesday, March 19, 2013

  Actual Average (KARR) Record (KARR)
Temperature  
Mean Temperature 27 °F -  
Max Temperature 35 °F 44 °F 77 °F (2012)
Min Temperature 19 °F 26 °F 16 °F (2013)
Degree Days  
Heating Degree Days 38    
Moisture  
Dew Point 16 °F    
Average Humidity 65    
Maximum Humidity 75    
Minimum Humidity 53    
Precipitation  
Precipitation 0.00 in - - ()
Sea Level Pressure  
Sea Level Pressure 29.98 in    
Wind  
Wind Speed 24 mph (West)    
Max Wind Speed 33 mph    
Max Gust Speed 40 mph    
Visibility 10 miles    
Events      
Averages and records for this station are not official NWS values.
T = Trace of Precipitation, MM = Missing Value Source: NWS Daily Summary

Daily Weather History Graph

Daily Weather History Graph

Search for Another Location

Airport or City:

Astronomy

Mar. 19, 2013 Rise Set
Actual Time 6:58 AM CDT 7:05 PM CDT
Civil Twilight 6:30 AM CDT 7:32 PM CDT
Nautical Twilight 5:58 AM CDT 8:05 PM CDT
Astronomical Twilight 5:25 AM CDT 8:37 PM CDT
Moon 11:44 AM CDT (3/19) 1:55 AM CDT (3/19)
Length of Visible Light 13h 01m
Length of Day
12h 06m
Waxing Crescent, 50% of the Moon is Illuminated
Mar 19
Waxing Crescent
Mar 19
First Quarter
Mar 27
Full
Apr 2
Last Quarter
Apr 10
New

Hourly Weather History & Observations

Time (CDT) Temp. Windchill Dew Point Humidity Pressure Visibility Wind Dir Wind Speed Gust Speed Precip Events Conditions
12:15 AM 23.9 °F 6.6 °F 14.0 °F 66% 29.84 in 10.0 mi West 29.9 mph 39.1 mph N/A   Scattered Clouds
12:35 AM 23.5 °F 8.3 °F 15.6 °F 72% 29.84 in 10.0 mi West 21.9 mph 29.9 mph N/A   Scattered Clouds
12:55 AM 23.7 °F 8.5 °F 15.3 °F 70% 29.84 in 10.0 mi West 21.9 mph 32.2 mph N/A   Scattered Clouds
1:15 AM 23.5 °F 7.6 °F 15.8 °F 72% 29.84 in 10.0 mi West 24.2 mph 28.8 mph N/A   Scattered Clouds
1:35 AM 22.6 °F 6.1 °F 14.4 °F 71% 29.84 in 10.0 mi West 25.3 mph 32.2 mph N/A   Scattered Clouds
1:55 AM 22.1 °F 4.8 °F 13.8 °F 70% 29.85 in 10.0 mi West 27.6 mph 39.1 mph N/A   Scattered Clouds
2:15 AM 22.1 °F 7.2 °F 14.7 °F 73% 29.84 in 10.0 mi West 19.6 mph 27.6 mph N/A   Scattered Clouds
2:35 AM 21.2 °F 5.6 °F 14.0 °F 74% 29.84 in 10.0 mi West 20.7 mph 25.3 mph N/A   Mostly Cloudy
2:55 AM 21.9 °F 7.8 °F 15.1 °F 75% 29.85 in 10.0 mi West 17.3 mph 24.2 mph N/A   Scattered Clouds
3:15 AM 22.1 °F 6.4 °F 15.1 °F 74% 29.86 in 10.0 mi West 21.9 mph 32.2 mph N/A   Overcast
3:35 AM 21.6 °F 4.7 °F 13.6 °F 72% 29.85 in 10.0 mi West 25.3 mph 29.9 mph N/A   Mostly Cloudy
3:55 AM 21.0 °F 4.6 °F 13.5 °F 73% 29.86 in 10.0 mi West 23.0 mph 31.1 mph N/A   Clear
4:15 AM 21.0 °F 5.4 °F 13.6 °F 73% 29.86 in 10.0 mi West 20.7 mph 25.3 mph N/A   Clear
4:35 AM 21.0 °F 5.0 °F 14.0 °F 74% 29.87 in 10.0 mi West 21.9 mph 28.8 mph N/A   Scattered Clouds
4:55 AM 20.7 °F 4.5 °F 13.5 °F 74% 29.87 in 10.0 mi West 21.9 mph 28.8 mph N/A   Scattered Clouds
5:15 AM 20.3 °F 4.0 °F 13.1 °F 74% 29.88 in 10.0 mi West 21.9 mph 32.2 mph N/A   Clear
5:35 AM 20.3 °F 4.8 °F 12.9 °F 73% 29.88 in 10.0 mi West 19.6 mph 31.1 mph N/A   Clear
5:55 AM 20.1 °F 3.4 °F 12.6 °F 73% 29.89 in 10.0 mi West 23.0 mph 32.2 mph N/A   Clear
6:15 AM 19.8 °F 3.3 °F 12.0 °F 72% 29.90 in 10.0 mi West 21.9 mph 31.1 mph N/A   Clear
6:35 AM 19.4 °F 2.8 °F 11.5 °F 71% 29.91 in 10.0 mi West 21.9 mph 32.2 mph N/A   Clear
6:55 AM 19.4 °F 1.8 °F 11.3 °F 71% 29.91 in 10.0 mi West 25.3 mph 34.5 mph N/A   Clear
7:15 AM 19.2 °F 2.6 °F 10.8 °F 70% 29.92 in 10.0 mi West 21.9 mph 33.4 mph N/A   Clear
7:35 AM 19.4 °F 2.1 °F 11.1 °F 70% 29.91 in 10.0 mi West 24.2 mph 31.1 mph N/A   Clear
7:55 AM 19.8 °F 2.6 °F 11.1 °F 69% 29.92 in 10.0 mi West 24.2 mph 33.4 mph N/A   Clear
8:15 AM 20.3 °F 2.6 °F 11.1 °F 68% 29.93 in 10.0 mi West 26.5 mph 34.5 mph N/A   Clear
8:35 AM 21.2 °F 4.9 °F 11.7 °F 67% 29.93 in 10.0 mi West 23.0 mph 33.4 mph N/A   Clear
8:55 AM 21.7 °F 2.9 °F 12.0 °F 66% 29.94 in 10.0 mi WNW 33.4 mph 39.1 mph N/A   Clear
9:15 AM 22.5 °F 5.9 °F 12.2 °F 65% 29.95 in 10.0 mi West 25.3 mph 33.4 mph N/A   Clear
9:35 AM 23.0 °F 5.1 °F 12.2 °F 63% 29.95 in 10.0 mi West 31.1 mph 38.0 mph N/A   Clear
9:55 AM 23.9 °F 7.8 °F 13.6 °F 65% 29.95 in 10.0 mi West 25.3 mph 29.9 mph N/A   Clear
10:15 AM 24.8 °F 9.3 °F 13.8 °F 63% 29.96 in 10.0 mi West 24.2 mph 31.1 mph N/A   Clear
10:35 AM 25.3 °F 8.6 °F 14.2 °F 63% 29.97 in 10.0 mi West 29.9 mph 36.8 mph N/A   Clear
10:55 AM 26.2 °F 10.6 °F 15.1 °F 63% 29.98 in 10.0 mi West 26.5 mph 38.0 mph N/A   Clear
11:15 AM 27.0 °F 10.8 °F 15.3 °F 61% 29.99 in 10.0 mi WNW 29.9 mph 35.7 mph N/A   Clear
11:35 AM 28.0 °F 12.0 °F 15.6 °F 60% 30.00 in 10.0 mi West 31.1 mph 40.3 mph N/A   Clear
11:55 AM 28.4 °F 13.0 °F 15.8 °F 59% 30.00 in 10.0 mi West 28.8 mph 35.7 mph N/A   Clear
12:15 PM 29.7 °F 15.2 °F 17.2 °F 60% 30.01 in 10.0 mi West 26.5 mph 34.5 mph N/A   Clear
12:35 PM 29.8 °F 14.7 °F 17.1 °F 59% 30.01 in 10.0 mi West 29.9 mph 35.7 mph N/A   Clear
12:55 PM 30.4 °F 16.2 °F 18.0 °F 60% 30.02 in 10.0 mi West 26.5 mph 38.0 mph N/A   Clear
1:15 PM 30.7 °F 16.4 °F 17.4 °F 58% 30.02 in 10.0 mi West 27.6 mph 39.1 mph N/A   Clear
1:35 PM 31.3 °F 17.4 °F 18.1 °F 58% 30.02 in 10.0 mi West 26.5 mph 39.1 mph N/A   Clear
1:55 PM 32.0 °F 17.6 °F 19.0 °F 59% 30.03 in 10.0 mi West 29.9 mph 38.0 mph N/A   Clear
2:15 PM 32.0 °F 18.4 °F 19.0 °F 59% 30.03 in 10.0 mi West 26.5 mph 36.8 mph N/A   Clear
2:35 PM 32.4 °F 18.9 °F 19.4 °F 59% 30.03 in 10.0 mi WNW 26.5 mph 35.7 mph N/A   Clear
2:55 PM 32.9 °F 20.1 °F 20.3 °F 60% 30.03 in 10.0 mi West 24.2 mph 36.8 mph N/A   Clear
3:15 PM 33.4 °F 20.3 °F 20.1 °F 58% 30.04 in 10.0 mi West 26.5 mph 29.9 mph N/A   Clear
3:35 PM 34.3 °F 21.5 °F 20.1 °F 56% 30.04 in 10.0 mi West 26.5 mph 31.1 mph N/A   Clear
3:55 PM 34.3 °F 22.6 °F 18.9 °F 53% 30.04 in 10.0 mi West 21.9 mph 34.5 mph N/A   Clear
4:15 PM 34.9 °F 22.5 °F 19.9 °F 55% 30.04 in 10.0 mi West 25.3 mph 32.2 mph N/A   Clear
4:35 PM 35.1 °F 23.3 °F 20.8 °F 56% 30.04 in 10.0 mi West 23.0 mph 31.1 mph N/A   Clear
4:55 PM 34.5 °F 21.8 °F 20.1 °F 56% 30.05 in 10.0 mi West 26.5 mph 33.4 mph N/A   Clear
5:15 PM 34.2 °F 21.3 °F 19.8 °F 56% 30.06 in 10.0 mi West 26.5 mph 32.2 mph N/A   Clear
5:35 PM 33.8 °F 20.5 °F 19.9 °F 57% 30.06 in 10.0 mi West 27.6 mph 36.8 mph N/A   Clear
5:55 PM 33.6 °F 22.2 °F 20.1 °F 58% 30.07 in 10.0 mi West 19.6 mph 29.9 mph N/A   Clear
6:15 PM 33.1 °F 20.6 °F 19.6 °F 58% 30.07 in 10.0 mi West 23.0 mph - N/A   Clear
6:35 PM 32.9 °F 20.4 °F 19.0 °F 57% 30.08 in 10.0 mi West 23.0 mph 26.5 mph N/A   Clear
6:55 PM 32.0 °F 19.8 °F 21.0 °F 64% 30.08 in 10.0 mi West 20.7 mph 25.3 mph N/A   Clear
7:15 PM 32.0 °F 19.8 °F 19.2 °F 59% 30.08 in 10.0 mi West 20.7 mph 26.5 mph N/A   Clear
7:35 PM 31.6 °F 20.0 °F 19.6 °F 61% 30.09 in 10.0 mi West 18.4 mph - N/A   Clear
7:55 PM 31.1 °F 19.3 °F 18.9 °F 61% 30.09 in 10.0 mi West 18.4 mph 26.5 mph N/A   Clear
8:15 PM 30.7 °F 19.2 °F 19.8 °F 64% 30.10 in 10.0 mi West 17.3 mph 21.9 mph N/A   Clear
8:35 PM 30.6 °F 20.2 °F 20.3 °F 66% 30.10 in 10.0 mi West 13.8 mph - N/A   Mostly Cloudy
8:55 PM 30.2 °F 19.8 °F 21.0 °F 69% 30.10 in 10.0 mi West 13.8 mph - N/A   Mostly Cloudy
9:15 PM 30.0 °F 19.5 °F 21.2 °F 70% 30.10 in 10.0 mi West 13.8 mph - N/A   Scattered Clouds
9:35 PM 29.3 °F 19.1 °F 21.7 °F 73% 30.10 in 10.0 mi West 12.7 mph - N/A   Clear
9:55 PM 29.3 °F 18.2 °F 22.1 °F 75% 30.11 in 10.0 mi West 15.0 mph - N/A   Clear
10:15 PM 28.9 °F 15.8 °F 20.1 °F 70% 30.10 in 10.0 mi WNW 20.7 mph 26.5 mph N/A   Clear
10:35 PM 28.8 °F 15.9 °F 18.9 °F 67% 30.10 in 10.0 mi WNW 19.6 mph - N/A   Clear
10:55 PM 28.2 °F 15.9 °F 19.0 °F 68% 30.10 in 10.0 mi WNW 17.3 mph 23.0 mph N/A   Clear
11:15 PM 27.9 °F 15.5 °F 19.0 °F 69% 30.09 in 10.0 mi WNW 17.3 mph 24.2 mph N/A   Scattered Clouds
11:35 PM 27.5 °F 15.4 °F 17.8 °F 67% 30.08 in 10.0 mi WNW 16.1 mph 23.0 mph N/A   Scattered Clouds
11:55 PM 27.9 °F 16.8 °F 18.1 °F 67% 30.08 in 10.0 mi West 13.8 mph - N/A   Overcast